Time,TemperatureF,DewpointF,PressureIn,WindDirection,WindDirectionDegrees,WindSpeedMPH,WindSpeedGustMPH,Humidity,HourlyPrecipIn,Conditions,Clouds,dailyrainin,SoftwareType,DateUTC
2013-03-02 00:00:00,25.3,23.8,29.67,WSW,257,2.0,2.0,94,0.00,,,0.00,Wunderground v.1.15,2013-03-02 05:00:00,
2013-03-02 00:01:00,25.3,23.8,29.67,WNW,299,2.0,3.0,94,0.00,,,0.00,Wunderground v.1.15,2013-03-02 05:01:00,
2013-03-02 00:03:00,25.3,23.8,29.67,West,262,6.0,6.0,94,0.00,,,0.00,Wunderground v.1.15,2013-03-02 05:03:00,
2013-03-02 00:09:00,25.3,23.8,29.67,WNW,302,6.0,6.0,94,0.00,,,0.00,Wunderground v.1.15,2013-03-02 05:09:00,
2013-03-02 00:10:00,25.3,23.8,29.67,WNW,302,1.0,6.0,94,0.00,,,0.00,Wunderground v.1.15,2013-03-02 05:10:00,
2013-03-02 00:15:00,25.3,23.8,29.67,NW,313,4.0,6.0,94,0.00,,,0.00,Wunderground v.1.15,2013-03-02 05:15:00,
2013-03-02 00:21:00,25.3,23.8,29.67,NW,307,2.0,4.0,94,0.00,,,0.00,Wunderground v.1.15,2013-03-02 05:21:00,
2013-03-02 00:27:00,25.3,23.8,29.67,NNW,336,4.0,7.0,94,0.00,,,0.00,Wunderground v.1.15,2013-03-02 05:27:00,
2013-03-02 00:32:00,25.3,23.8,29.67,NW,312,1.0,4.0,94,0.00,,,0.00,Wunderground v.1.15,2013-03-02 05:32:00,
2013-03-02 00:38:00,25.3,23.8,29.67,WSW,250,2.0,5.0,94,0.00,,,0.00,Wunderground v.1.15,2013-03-02 05:38:00,
2013-03-02 00:43:00,25.3,23.8,29.67,West,264,4.0,5.0,94,0.00,,,0.00,Wunderground v.1.15,2013-03-02 05:43:00,
2013-03-02 00:49:00,25.2,23.7,29.67,NW,316,3.0,3.0,94,0.00,,,0.00,Wunderground v.1.15,2013-03-02 05:49:00,
2013-03-02 00:54:00,25.3,23.8,29.67,NW,319,3.0,6.0,94,0.00,,,0.00,Wunderground v.1.15,2013-03-02 05:54:00,
2013-03-02 00:59:00,25.3,23.8,29.67,WSW,256,0.0,3.0,94,0.00,,,0.00,Wunderground v.1.15,2013-03-02 05:59:00,
2013-03-02 01:05:00,25.3,23.8,29.66,NW,321,2.0,7.0,94,0.00,,,0.00,Wunderground v.1.15,2013-03-02 06:05:00,
2013-03-02 01:10:00,25.2,24.0,29.66,NW,304,1.0,4.0,95,0.00,,,0.00,Wunderground v.1.15,2013-03-02 06:10:00,
2013-03-02 01:15:00,25.2,24.0,29.67,North,349,5.0,5.0,95,0.00,,,0.00,Wunderground v.1.15,2013-03-02 06:15:00,
2013-03-02 01:20:00,25.2,24.0,29.67,NW,308,3.0,3.0,95,0.00,,,0.00,Wunderground v.1.15,2013-03-02 06:20:00,
2013-03-02 01:26:00,25.1,23.9,29.66,NW,304,5.0,6.0,95,0.00,,,0.00,Wunderground v.1.15,2013-03-02 06:26:00,
2013-03-02 01:31:00,25.1,23.9,29.66,NW,308,1.0,4.0,95,0.00,,,0.00,Wunderground v.1.15,2013-03-02 06:31:00,
2013-03-02 01:36:00,25.1,23.9,29.66,NNW,329,4.0,5.0,95,0.00,,,0.00,Wunderground v.1.15,2013-03-02 06:36:00,
2013-03-02 01:41:00,25.0,23.8,29.66,WNW,302,5.0,5.0,95,0.00,,,0.00,Wunderground v.1.15,2013-03-02 06:41:00,
2013-03-02 01:47:00,25.0,23.8,29.66,NW,316,2.0,10.0,95,0.00,,,0.00,Wunderground v.1.15,2013-03-02 06:47:00,
2013-03-02 01:53:00,25.0,23.8,29.66,NW,311,6.0,6.0,95,0.00,,,0.00,Wunderground v.1.15,2013-03-02 06:53:00,
2013-03-02 01:59:00,25.0,23.8,29.66,WNW,283,5.0,5.0,95,0.00,,,0.00,Wunderground v.1.15,2013-03-02 06:59:00,
2013-03-02 02:04:00,25.0,23.8,29.66,WNW,284,3.0,9.0,95,0.00,,,0.00,Wunderground v.1.15,2013-03-02 07:04:00,
2013-03-02 02:09:00,25.0,23.8,29.66,WNW,283,4.0,4.0,95,0.00,,,0.00,Wunderground v.1.15,2013-03-02 07:09:00,
2013-03-02 02:14:00,25.0,23.8,29.66,NW,306,3.0,10.0,95,0.00,,,0.00,Wunderground v.1.15,2013-03-02 07:14:00,
2013-03-02 02:19:00,25.0,23.8,29.66,WNW,301,0.0,4.0,95,0.00,,,0.00,Wunderground v.1.15,2013-03-02 07:19:00,
2013-03-02 02:24:00,25.0,23.8,29.66,NW,309,5.0,11.0,95,0.00,,,0.00,Wunderground v.1.15,2013-03-02 07:24:00,
2013-03-02 02:29:00,25.1,23.9,29.66,West,266,3.0,4.0,95,0.00,,,0.00,Wunderground v.1.15,2013-03-02 07:29:00,
2013-03-02 02:34:00,25.1,23.9,29.66,WNW,302,2.0,8.0,95,0.00,,,0.00,Wunderground v.1.15,2013-03-02 07:34:00,
2013-03-02 02:39:00,25.2,24.0,29.66,NW,316,5.0,5.0,95,0.00,,,0.00,Wunderground v.1.15,2013-03-02 07:39:00,
2013-03-02 02:44:00,25.2,23.7,29.66,NW,312,4.0,7.0,94,0.00,,,0.00,Wunderground v.1.15,2013-03-02 07:44:00,
2013-03-02 02:49:00,25.2,23.7,29.66,NNW,329,3.0,5.0,94,0.00,,,0.00,Wunderground v.1.15,2013-03-02 07:49:00,
2013-03-02 02:54:00,25.2,23.7,29.66,WSW,250,2.0,10.0,94,0.00,,,0.00,Wunderground v.1.15,2013-03-02 07:54:00,
2013-03-02 02:59:00,25.2,23.7,29.65,SW,216,2.0,4.0,94,0.00,,,0.00,Wunderground v.1.15,2013-03-02 07:59:00,
2013-03-02 03:04:00,25.1,23.6,29.65,West,266,1.0,6.0,94,0.00,,,0.00,Wunderground v.1.15,2013-03-02 08:04:00,
2013-03-02 03:09:00,25.1,23.6,29.66,NW,318,3.0,6.0,94,0.00,,,0.00,Wunderground v.1.15,2013-03-02 08:09:00,
2013-03-02 03:14:00,25.1,23.6,29.66,NW,308,5.0,8.0,94,0.00,,,0.00,Wunderground v.1.15,2013-03-02 08:14:00,
2013-03-02 03:19:00,25.1,23.6,29.66,NW,325,1.0,4.0,94,0.00,,,0.00,Wunderground v.1.15,2013-03-02 08:19:00,
2013-03-02 03:24:00,25.1,23.9,29.66,NW,304,4.0,9.0,95,0.00,,,0.00,Wunderground v.1.15,2013-03-02 08:24:00,
2013-03-02 03:29:00,25.1,23.9,29.66,NW,314,8.0,9.0,95,0.00,,,0.00,Wunderground v.1.15,2013-03-02 08:29:00,
2013-03-02 03:34:00,25.0,23.8,29.66,NW,308,4.0,10.0,95,0.00,,,0.00,Wunderground v.1.15,2013-03-02 08:34:00,
2013-03-02 03:39:00,25.0,23.8,29.66,West,269,1.0,5.0,95,0.00,,,0.00,Wunderground v.1.15,2013-03-02 08:39:00,
2013-03-02 03:44:00,25.1,23.9,29.66,NW,304,1.0,9.0,95,0.00,,,0.00,Wunderground v.1.15,2013-03-02 08:44:00,
2013-03-02 03:49:00,25.0,23.8,29.66,NW,309,4.0,5.0,95,0.00,,,0.00,Wunderground v.1.15,2013-03-02 08:49:00,
2013-03-02 03:54:00,25.0,23.8,29.66,WSW,253,4.0,11.0,95,0.00,,,0.00,Wunderground v.1.15,2013-03-02 08:54:00,
2013-03-02 03:59:00,25.1,23.9,29.67,West,278,4.0,4.0,95,0.00,,,0.00,Wunderground v.1.15,2013-03-02 08:59:00,
2013-03-02 04:04:00,25.0,23.8,29.66,NW,315,5.0,6.0,95,0.00,,,0.00,Wunderground v.1.15,2013-03-02 09:04:00,
2013-03-02 04:09:00,25.1,23.9,29.66,SW,224,2.0,2.0,95,0.00,,,0.00,Wunderground v.1.15,2013-03-02 09:09:00,
2013-03-02 04:14:00,25.1,23.9,29.67,NW,304,4.0,8.0,95,0.00,,,0.00,Wunderground v.1.15,2013-03-02 09:14:00,
2013-03-02 04:19:00,25.1,23.9,29.67,West,260,1.0,5.0,95,0.00,,,0.00,Wunderground v.1.15,2013-03-02 09:19:00,
2013-03-02 04:24:00,25.1,23.9,29.67,West,275,1.0,7.0,95,0.00,,,0.00,Wunderground v.1.15,2013-03-02 09:24:00,
2013-03-02 04:29:00,25.0,23.8,29.67,West,264,4.0,4.0,95,0.00,,,0.00,Wunderground v.1.15,2013-03-02 09:29:00,
2013-03-02 04:34:00,25.0,23.8,29.67,NW,308,3.0,8.0,95,0.00,,,0.00,Wunderground v.1.15,2013-03-02 09:34:00,
2013-03-02 04:39:00,25.0,23.8,29.67,WNW,285,3.0,4.0,95,0.00,,,0.00,Wunderground v.1.15,2013-03-02 09:39:00,
2013-03-02 04:44:00,25.0,23.8,29.67,NW,307,3.0,9.0,95,0.00,,,0.00,Wunderground v.1.15,2013-03-02 09:44:00,
2013-03-02 04:49:00,25.0,24.0,29.66,NW,307,6.0,6.0,96,0.00,,,0.00,Wunderground v.1.15,2013-03-02 09:49:00,
2013-03-02 04:54:00,25.0,24.0,29.66,WNW,285,3.0,11.0,96,0.00,,,0.00,Wunderground v.1.15,2013-03-02 09:54:00,
2013-03-02 04:59:00,25.0,24.0,29.66,NW,321,6.0,6.0,96,0.00,,,0.00,Wunderground v.1.15,2013-03-02 09:59:00,
2013-03-02 05:04:00,25.0,24.0,29.66,WNW,299,7.0,9.0,96,0.00,,,0.00,Wunderground v.1.15,2013-03-02 10:04:00,
2013-03-02 05:11:00,25.0,24.0,29.66,NNW,335,3.0,7.0,96,0.00,,,0.00,Wunderground v.1.15,2013-03-02 10:11:00,
2013-03-02 05:16:00,25.0,24.0,29.66,WNW,291,4.0,7.0,96,0.00,,,0.00,Wunderground v.1.15,2013-03-02 10:16:00,
2013-03-02 05:22:00,25.0,24.0,29.66,NW,307,1.0,10.0,96,0.00,,,0.00,Wunderground v.1.15,2013-03-02 10:22:00,
2013-03-02 05:27:00,25.0,24.0,29.66,NW,308,3.0,10.0,96,0.00,,,0.00,Wunderground v.1.15,2013-03-02 10:27:00,
2013-03-02 05:32:00,25.0,24.0,29.66,WNW,300,4.0,6.0,96,0.00,,,0.00,Wunderground v.1.15,2013-03-02 10:32:00,
2013-03-02 05:41:00,25.0,24.0,29.66,WSW,241,0.0,7.0,96,0.00,,,0.00,Wunderground v.1.15,2013-03-02 10:41:00,
2013-03-02 05:46:00,25.0,24.0,29.66,NW,314,6.0,7.0,96,0.00,,,0.00,Wunderground v.1.15,2013-03-02 10:46:00,
2013-03-02 05:51:00,24.9,23.7,29.66,West,266,2.0,4.0,95,0.00,,,0.00,Wunderground v.1.15,2013-03-02 10:51:00,
2013-03-02 05:56:00,24.8,23.6,29.66,West,268,2.0,12.0,95,0.00,,,0.00,Wunderground v.1.15,2013-03-02 10:56:00,
2013-03-02 06:01:00,24.8,23.6,29.66,NW,318,1.0,6.0,95,0.00,,,0.00,Wunderground v.1.15,2013-03-02 11:01:00,
2013-03-02 06:06:00,24.8,23.6,29.66,NW,305,2.0,8.0,95,0.00,,,0.00,Wunderground v.1.15,2013-03-02 11:06:00,
2013-03-02 06:11:00,24.7,23.5,29.66,WNW,285,4.0,9.0,95,0.00,,,0.00,Wunderground v.1.15,2013-03-02 11:11:00,
2013-03-02 06:16:00,24.7,23.5,29.66,West,279,4.0,11.0,95,0.00,,,0.00,Wunderground v.1.15,2013-03-02 11:16:00,
2013-03-02 06:22:00,24.6,23.4,29.66,WNW,283,7.0,8.0,95,0.00,,,0.00,Wunderground v.1.15,2013-03-02 11:22:00,
2013-03-02 06:27:00,24.6,23.4,29.66,WNW,299,4.0,12.0,95,0.00,,,0.00,Wunderground v.1.15,2013-03-02 11:27:00,
2013-03-02 06:32:00,24.6,23.4,29.66,NW,311,3.0,5.0,95,0.00,,,0.00,Wunderground v.1.15,2013-03-02 11:32:00,
2013-03-02 06:37:00,24.6,23.1,29.66,NW,312,8.0,8.0,94,0.00,,,0.00,Wunderground v.1.15,2013-03-02 11:37:00,
2013-03-02 06:42:00,24.6,23.1,29.66,NW,314,5.0,8.0,94,0.00,,,0.00,Wunderground v.1.15,2013-03-02 11:42:00,
2013-03-02 06:47:00,24.6,23.1,29.66,NNW,336,2.0,9.0,94,0.00,,,0.00,Wunderground v.1.15,2013-03-02 11:47:00,
2013-03-02 06:52:00,24.6,23.1,29.66,NW,306,1.0,7.0,94,0.00,,,0.00,Wunderground v.1.15,2013-03-02 11:52:00,
2013-03-02 06:57:00,24.6,23.1,29.66,NW,325,1.0,8.0,94,0.00,,,0.00,Wunderground v.1.15,2013-03-02 11:57:00,
2013-03-02 07:02:00,24.6,23.1,29.67,West,259,1.0,4.0,94,0.00,,,0.00,Wunderground v.1.15,2013-03-02 12:02:00,
2013-03-02 07:07:00,24.6,23.1,29.67,WSW,254,1.0,9.0,94,0.00,,,0.00,Wunderground v.1.15,2013-03-02 12:07:00,
2013-03-02 07:12:00,24.7,23.2,29.67,West,267,4.0,9.0,94,0.00,,,0.00,Wunderground v.1.15,2013-03-02 12:12:00,
2013-03-02 07:17:00,24.7,23.2,29.67,WNW,291,2.0,9.0,94,0.00,,,0.00,Wunderground v.1.15,2013-03-02 12:17:00,
2013-03-02 07:22:00,24.8,23.3,29.67,NW,312,4.0,5.0,94,0.00,,,0.00,Wunderground v.1.15,2013-03-02 12:22:00,
2013-03-02 07:27:00,24.8,23.3,29.67,WNW,296,2.0,7.0,94,0.00,,,0.00,Wunderground v.1.15,2013-03-02 12:27:00,
2013-03-02 07:32:00,24.8,23.3,29.67,West,264,2.0,7.0,94,0.00,,,0.00,Wunderground v.1.15,2013-03-02 12:32:00,
2013-03-02 07:37:00,25.0,23.5,29.67,NW,309,4.0,7.0,94,0.00,,,0.00,Wunderground v.1.15,2013-03-02 12:37:00,
2013-03-02 07:42:00,25.0,23.3,29.67,WSW,250,3.0,6.0,93,0.00,,,0.00,Wunderground v.1.15,2013-03-02 12:42:00,
2013-03-02 07:47:00,25.0,23.3,29.67,NW,309,6.0,6.0,93,0.00,,,0.00,Wunderground v.1.15,2013-03-02 12:47:00,
2013-03-02 07:52:00,25.1,23.4,29.67,NW,311,3.0,8.0,93,0.00,,,0.00,Wunderground v.1.15,2013-03-02 12:52:00,
2013-03-02 07:57:00,25.1,23.4,29.68,NW,311,5.0,8.0,93,0.00,,,0.00,Wunderground v.1.15,2013-03-02 12:57:00,
2013-03-02 08:02:00,25.3,23.6,29.67,NW,316,2.0,7.0,93,0.00,,,0.00,Wunderground v.1.15,2013-03-02 13:02:00,
2013-03-02 08:07:00,25.4,23.7,29.67,WNW,291,5.0,7.0,93,0.00,,,0.00,Wunderground v.1.15,2013-03-02 13:07:00,
2013-03-02 08:12:00,25.6,23.9,29.67,NW,312,3.0,5.0,93,0.00,,,0.00,Wunderground v.1.15,2013-03-02 13:12:00,
2013-03-02 08:17:00,25.5,23.5,29.67,WNW,295,3.0,8.0,92,0.00,,,0.00,Wunderground v.1.15,2013-03-02 13:17:00,
2013-03-02 08:22:00,25.5,23.8,29.67,WNW,292,4.0,6.0,93,0.00,,,0.00,Wunderground v.1.15,2013-03-02 13:22:00,
2013-03-02 08:27:00,25.6,23.6,29.67,East,91,2.0,6.0,92,0.00,,,0.00,Wunderground v.1.15,2013-03-02 13:27:00,
2013-03-02 08:32:00,25.7,23.7,29.67,NW,309,5.0,7.0,92,0.00,,,0.00,Wunderground v.1.15,2013-03-02 13:32:00,
2013-03-02 08:37:00,25.7,23.7,29.67,West,272,4.0,10.0,92,0.00,,,0.00,Wunderground v.1.15,2013-03-02 13:37:00,
2013-03-02 08:42:00,25.8,23.8,29.67,WNW,284,7.0,9.0,92,0.00,,,0.00,Wunderground v.1.15,2013-03-02 13:42:00,
2013-03-02 08:47:00,26.0,24.0,29.67,WNW,298,3.0,9.0,92,0.00,,,0.00,Wunderground v.1.15,2013-03-02 13:47:00,
2013-03-02 08:52:00,26.1,24.1,29.67,NW,308,2.0,8.0,92,0.00,,,0.00,Wunderground v.1.15,2013-03-02 13:52:00,
2013-03-02 08:57:00,26.2,23.9,29.67,NW,304,1.0,8.0,91,0.00,,,0.00,Wunderground v.1.15,2013-03-02 13:57:00,
2013-03-02 09:03:00,26.2,23.9,29.67,NW,325,7.0,7.0,91,0.00,,,0.00,Wunderground v.1.15,2013-03-02 14:03:00,
2013-03-02 09:08:00,26.1,24.1,29.67,NW,304,6.0,10.0,92,0.00,,,0.00,Wunderground v.1.15,2013-03-02 14:08:00,
2013-03-02 09:13:00,26.2,23.9,29.67,NW,306,5.0,9.0,91,0.00,,,0.00,Wunderground v.1.15,2013-03-02 14:13:00,
2013-03-02 09:18:00,26.1,23.8,29.67,NW,309,2.0,9.0,91,0.00,,,0.00,Wunderground v.1.15,2013-03-02 14:18:00,
2013-03-02 09:23:00,26.2,23.9,29.67,North,1,4.0,9.0,91,0.00,,,0.00,Wunderground v.1.15,2013-03-02 14:23:00,
2013-03-02 09:28:00,26.2,24.2,29.67,WNW,287,3.0,10.0,92,0.00,,,0.00,Wunderground v.1.15,2013-03-02 14:28:00,
2013-03-02 09:33:00,26.2,23.9,29.67,NW,316,6.0,9.0,91,0.00,,,0.00,Wunderground v.1.15,2013-03-02 14:33:00,
2013-03-02 09:38:00,26.3,24.0,29.67,NW,308,3.0,12.0,91,0.00,,,0.00,Wunderground v.1.15,2013-03-02 14:38:00,
2013-03-02 09:43:00,26.3,24.0,29.67,NW,312,5.0,9.0,91,0.00,,,0.00,Wunderground v.1.15,2013-03-02 14:43:00,
2013-03-02 09:48:00,26.2,23.9,29.67,WSW,245,2.0,9.0,91,0.00,,,0.00,Wunderground v.1.15,2013-03-02 14:48:00,
2013-03-02 09:53:00,26.3,24.0,29.67,NW,310,3.0,6.0,91,0.00,,,0.00,Wunderground v.1.15,2013-03-02 14:53:00,
2013-03-02 09:58:00,26.4,23.9,29.67,NW,311,8.0,10.0,90,0.00,,,0.00,Wunderground v.1.15,2013-03-02 14:58:00,
2013-03-02 10:03:00,26.2,23.7,29.67,WNW,302,10.0,10.0,90,0.00,,,0.00,Wunderground v.1.15,2013-03-02 15:03:00,
2013-03-02 10:08:00,26.1,23.6,29.67,WNW,290,3.0,12.0,90,0.00,,,0.00,Wunderground v.1.15,2013-03-02 15:08:00,
2013-03-02 10:13:00,26.2,23.7,29.67,WNW,287,2.0,11.0,90,0.00,,,0.00,Wunderground v.1.15,2013-03-02 15:13:00,
2013-03-02 10:18:00,26.2,23.7,29.67,NNW,338,4.0,13.0,90,0.00,,,0.00,Wunderground v.1.15,2013-03-02 15:18:00,
2013-03-02 10:23:00,26.5,24.0,29.67,WNW,298,7.0,9.0,90,0.00,,,0.00,Wunderground v.1.15,2013-03-02 15:23:00,
2013-03-02 10:28:00,26.4,23.9,29.67,NNW,346,6.0,13.0,90,0.00,,,0.00,Wunderground v.1.15,2013-03-02 15:28:00,
2013-03-02 10:33:00,26.3,23.8,29.67,North,359,5.0,11.0,90,0.00,,,0.00,Wunderground v.1.15,2013-03-02 15:33:00,
2013-03-02 10:38:00,26.4,23.9,29.67,WNW,297,4.0,11.0,90,0.00,,,0.00,Wunderground v.1.15,2013-03-02 15:38:00,
2013-03-02 10:43:00,26.2,23.7,29.67,NNW,342,6.0,13.0,90,0.00,,,0.00,Wunderground v.1.15,2013-03-02 15:43:00,
2013-03-02 10:48:00,26.2,23.7,29.67,NW,321,7.0,13.0,90,0.00,,,0.00,Wunderground v.1.15,2013-03-02 15:48:00,
2013-03-02 10:53:00,26.0,23.5,29.67,NW,318,6.0,10.0,90,0.00,,,0.00,Wunderground v.1.15,2013-03-02 15:53:00,
2013-03-02 10:58:00,25.9,23.4,29.67,NW,316,1.0,10.0,90,0.00,,,0.00,Wunderground v.1.15,2013-03-02 15:58:00,
2013-03-02 11:04:00,26.0,23.7,29.67,NW,315,2.0,8.0,91,0.00,,,0.00,Wunderground v.1.15,2013-03-02 16:04:00,
2013-03-02 11:09:00,26.2,23.7,29.67,West,272,5.0,5.0,90,0.00,,,0.00,Wunderground v.1.15,2013-03-02 16:09:00,
2013-03-02 11:14:00,26.3,23.8,29.67,NW,318,5.0,12.0,90,0.00,,,0.00,Wunderground v.1.15,2013-03-02 16:14:00,
2013-03-02 11:19:00,26.3,23.8,29.67,NW,304,4.0,4.0,90,0.00,,,0.00,Wunderground v.1.15,2013-03-02 16:19:00,
2013-03-02 11:24:00,26.1,23.6,29.67,NW,322,7.0,11.0,90,0.00,,,0.00,Wunderground v.1.15,2013-03-02 16:24:00,
2013-03-02 11:29:00,25.9,23.6,29.67,NNW,335,4.0,11.0,91,0.00,,,0.00,Wunderground v.1.15,2013-03-02 16:29:00,
2013-03-02 11:34:00,26.0,23.7,29.67,West,280,3.0,11.0,91,0.00,,,0.00,Wunderground v.1.15,2013-03-02 16:34:00,
2013-03-02 11:39:00,26.0,23.7,29.67,West,267,5.0,6.0,91,0.00,,,0.00,Wunderground v.1.15,2013-03-02 16:39:00,
2013-03-02 11:44:00,25.7,23.4,29.67,West,273,4.0,10.0,91,0.00,,,0.00,Wunderground v.1.15,2013-03-02 16:44:00,
2013-03-02 11:49:00,25.7,23.4,29.67,NW,318,4.0,6.0,91,0.00,,,0.00,Wunderground v.1.15,2013-03-02 16:49:00,
2013-03-02 11:54:00,25.5,23.2,29.67,WNW,301,6.0,11.0,91,0.00,,,0.00,Wunderground v.1.15,2013-03-02 16:54:00,
2013-03-02 11:59:00,25.4,23.4,29.66,NW,314,8.0,8.0,92,0.00,,,0.00,Wunderground v.1.15,2013-03-02 16:59:00,
2013-03-02 12:04:00,25.3,23.3,29.66,NW,318,6.0,12.0,92,0.00,,,0.00,Wunderground v.1.15,2013-03-02 17:04:00,
2013-03-02 12:09:00,25.3,23.3,29.66,West,280,2.0,6.0,92,0.00,,,0.00,Wunderground v.1.15,2013-03-02 17:09:00,
2013-03-02 12:14:00,25.3,23.3,29.66,NW,304,5.0,11.0,92,0.00,,,0.00,Wunderground v.1.15,2013-03-02 17:14:00,
2013-03-02 12:19:00,25.5,23.5,29.66,NW,312,6.0,8.0,92,0.00,,,0.00,Wunderground v.1.15,2013-03-02 17:19:00,
2013-03-02 12:24:00,25.7,23.7,29.66,WNW,291,2.0,8.0,92,0.00,,,0.00,Wunderground v.1.15,2013-03-02 17:24:00,
2013-03-02 12:29:00,25.7,23.4,29.66,WNW,297,6.0,9.0,91,0.00,,,0.00,Wunderground v.1.15,2013-03-02 17:29:00,
2013-03-02 12:34:00,25.7,23.4,29.66,NW,304,7.0,11.0,91,0.00,,,0.00,Wunderground v.1.15,2013-03-02 17:34:00,
2013-03-02 12:39:00,25.7,23.4,29.65,WNW,298,5.0,7.0,91,0.00,,,0.00,Wunderground v.1.15,2013-03-02 17:39:00,
2013-03-02 12:44:00,25.7,23.4,29.65,WNW,298,1.0,9.0,91,0.00,,,0.00,Wunderground v.1.15,2013-03-02 17:44:00,
2013-03-02 12:49:00,25.8,23.5,29.65,NW,312,3.0,4.0,91,0.00,,,0.00,Wunderground v.1.15,2013-03-02 17:49:00,
2013-03-02 12:54:00,25.7,23.4,29.65,WSW,250,3.0,7.0,91,0.00,,,0.00,Wunderground v.1.15,2013-03-02 17:54:00,
2013-03-02 12:59:00,25.7,23.7,29.65,West,276,5.0,6.0,92,0.00,,,0.00,Wunderground v.1.15,2013-03-02 17:59:00,
2013-03-02 13:05:00,25.7,23.7,29.65,WNW,297,3.0,7.0,92,0.00,,,0.00,Wunderground v.1.15,2013-03-02 18:05:00,
2013-03-02 13:10:00,25.8,23.8,29.65,WNW,297,3.0,5.0,92,0.00,,,0.00,Wunderground v.1.15,2013-03-02 18:10:00,
2013-03-02 13:14:00,25.8,23.8,29.65,West,266,1.0,7.0,92,0.00,,,0.00,Wunderground v.1.15,2013-03-02 18:14:00,
2013-03-02 13:20:00,25.8,23.8,29.65,WNW,283,2.0,9.0,92,0.00,,,0.00,Wunderground v.1.15,2013-03-02 18:20:00,
2013-03-02 13:25:00,25.7,23.7,29.65,NW,316,5.0,9.0,92,0.00,,,0.00,Wunderground v.1.15,2013-03-02 18:25:00,
2013-03-02 13:30:00,25.7,23.7,29.65,NW,309,3.0,5.0,92,0.00,,,0.00,Wunderground v.1.15,2013-03-02 18:30:00,
2013-03-02 13:35:00,25.7,23.7,29.65,West,266,5.0,8.0,92,0.00,,,0.00,Wunderground v.1.15,2013-03-02 18:35:00,
2013-03-02 13:40:00,25.7,23.7,29.65,WSW,247,4.0,8.0,92,0.00,,,0.00,Wunderground v.1.15,2013-03-02 18:40:00,
2013-03-02 13:45:00,25.7,23.7,29.65,NW,308,6.0,8.0,92,0.00,,,0.00,Wunderground v.1.15,2013-03-02 18:45:00,
2013-03-02 13:50:00,25.6,23.6,29.65,NW,311,3.0,7.0,92,0.00,,,0.00,Wunderground v.1.15,2013-03-02 18:50:00,
2013-03-02 13:55:00,25.6,23.6,29.65,NW,311,7.0,8.0,92,0.00,,,0.00,Wunderground v.1.15,2013-03-02 18:55:00,
2013-03-02 14:00:00,25.5,23.5,29.64,WNW,301,7.0,7.0,92,0.00,,,0.00,Wunderground v.1.15,2013-03-02 19:00:00,
2013-03-02 14:05:00,25.5,23.5,29.64,WNW,298,3.0,10.0,92,0.00,,,0.00,Wunderground v.1.15,2013-03-02 19:05:00,
2013-03-02 14:10:00,25.6,23.3,29.64,NW,309,5.0,7.0,91,0.00,,,0.00,Wunderground v.1.15,2013-03-02 19:10:00,
2013-03-02 14:15:00,25.5,23.2,29.64,NW,314,2.0,12.0,91,0.00,,,0.00,Wunderground v.1.15,2013-03-02 19:15:00,
2013-03-02 14:20:00,25.6,23.3,29.64,West,281,4.0,5.0,91,0.00,,,0.00,Wunderground v.1.15,2013-03-02 19:20:00,
2013-03-02 14:25:00,25.7,23.4,29.64,WNW,299,3.0,9.0,91,0.00,,,0.00,Wunderground v.1.15,2013-03-02 19:25:00,
2013-03-02 14:30:00,25.7,23.2,29.64,West,260,2.0,7.0,90,0.00,,,0.00,Wunderground v.1.15,2013-03-02 19:30:00,
2013-03-02 14:36:00,25.8,23.3,29.64,WSW,249,5.0,8.0,90,0.00,,,0.00,Wunderground v.1.15,2013-03-02 19:36:00,
2013-03-02 14:41:00,25.7,23.2,29.64,West,278,4.0,8.0,90,0.00,,,0.00,Wunderground v.1.15,2013-03-02 19:41:00,
2013-03-02 14:46:00,25.7,23.2,29.64,NW,312,2.0,11.0,90,0.00,,,0.00,Wunderground v.1.15,2013-03-02 19:46:00,
2013-03-02 14:51:00,25.7,23.2,29.64,WNW,296,3.0,8.0,90,0.00,,,0.00,Wunderground v.1.15,2013-03-02 19:51:00,
2013-03-02 14:56:00,25.7,23.2,29.64,NW,319,4.0,9.0,90,0.00,,,0.00,Wunderground v.1.15,2013-03-02 19:56:00,
2013-03-02 15:01:00,25.8,23.3,29.64,WNW,295,3.0,4.0,90,0.00,,,0.00,Wunderground v.1.15,2013-03-02 20:01:00,
2013-03-02 15:06:00,25.8,23.3,29.64,NW,318,3.0,9.0,90,0.00,,,0.00,Wunderground v.1.15,2013-03-02 20:06:00,
2013-03-02 15:11:00,25.8,23.3,29.64,NW,315,4.0,9.0,90,0.00,,,0.00,Wunderground v.1.15,2013-03-02 20:11:00,
2013-03-02 15:16:00,25.8,23.3,29.64,WNW,284,4.0,9.0,90,0.00,,,0.00,Wunderground v.1.15,2013-03-02 20:16:00,
2013-03-02 15:21:00,25.7,22.9,29.64,WNW,298,6.0,8.0,89,0.00,,,0.00,Wunderground v.1.15,2013-03-02 20:21:00,
2013-03-02 15:26:00,25.7,22.9,29.64,West,271,5.0,9.0,89,0.00,,,0.00,Wunderground v.1.15,2013-03-02 20:26:00,
2013-03-02 15:31:00,25.8,23.0,29.64,NW,314,3.0,4.0,89,0.00,,,0.00,Wunderground v.1.15,2013-03-02 20:31:00,
2013-03-02 15:36:00,25.8,22.7,29.65,WNW,298,7.0,10.0,88,0.00,,,0.00,Wunderground v.1.15,2013-03-02 20:36:00,
2013-03-02 15:41:00,25.8,22.5,29.65,WNW,290,5.0,10.0,87,0.00,,,0.00,Wunderground v.1.15,2013-03-02 20:41:00,
2013-03-02 15:46:00,25.8,22.5,29.65,NW,304,3.0,10.0,87,0.00,,,0.00,Wunderground v.1.15,2013-03-02 20:46:00,
2013-03-02 15:51:00,25.9,22.6,29.65,NW,304,2.0,5.0,87,0.00,,,0.00,Wunderground v.1.15,2013-03-02 20:51:00,
2013-03-02 15:56:00,26.0,22.7,29.65,NW,311,2.0,5.0,87,0.00,,,0.00,Wunderground v.1.15,2013-03-02 20:56:00,
2013-03-02 16:01:00,26.0,22.4,29.65,NW,305,3.0,7.0,86,0.00,,,0.00,Wunderground v.1.15,2013-03-02 21:01:00,
2013-03-02 16:06:00,25.9,22.3,29.65,WSW,238,2.0,8.0,86,0.00,,,0.00,Wunderground v.1.15,2013-03-02 21:06:00,
2013-03-02 16:11:00,25.9,22.3,29.65,WNW,297,1.0,6.0,86,0.00,,,0.00,Wunderground v.1.15,2013-03-02 21:11:00,
2013-03-02 16:16:00,25.9,22.3,29.65,NW,311,4.0,9.0,86,0.00,,,0.00,Wunderground v.1.15,2013-03-02 21:16:00,
2013-03-02 16:21:00,25.8,22.2,29.65,WNW,302,5.0,9.0,86,0.00,,,0.00,Wunderground v.1.15,2013-03-02 21:21:00,
2013-03-02 16:26:00,25.7,22.1,29.65,West,270,1.0,10.0,86,0.00,,,0.00,Wunderground v.1.15,2013-03-02 21:26:00,
2013-03-02 16:31:00,25.6,22.0,29.65,WSW,253,4.0,10.0,86,0.00,,,0.00,Wunderground v.1.15,2013-03-02 21:31:00,
2013-03-02 16:36:00,25.5,21.9,29.65,NNW,338,7.0,10.0,86,0.00,,,0.00,Wunderground v.1.15,2013-03-02 21:36:00,
2013-03-02 16:41:00,25.3,22.0,29.65,West,274,3.0,9.0,87,0.00,,,0.00,Wunderground v.1.15,2013-03-02 21:41:00,
2013-03-02 16:46:00,25.1,21.8,29.65,NW,307,6.0,10.0,87,0.00,,,0.00,Wunderground v.1.15,2013-03-02 21:46:00,
2013-03-02 16:51:00,25.0,21.9,29.66,NW,308,5.0,9.0,88,0.00,,,0.00,Wunderground v.1.15,2013-03-02 21:51:00,
2013-03-02 16:56:00,24.9,22.1,29.66,WNW,297,4.0,9.0,89,0.00,,,0.00,Wunderground v.1.15,2013-03-02 21:56:00,
2013-03-02 17:01:00,24.8,22.3,29.66,WNW,299,7.0,7.0,90,0.00,,,0.00,Wunderground v.1.15,2013-03-02 22:01:00,
2013-03-02 17:06:00,24.7,22.2,29.66,NNW,330,4.0,8.0,90,0.00,,,0.00,Wunderground v.1.15,2013-03-02 22:06:00,
2013-03-02 17:11:00,24.7,22.2,29.66,NW,319,5.0,6.0,90,0.00,,,0.00,Wunderground v.1.15,2013-03-02 22:11:00,
2013-03-02 17:16:00,24.6,22.3,29.66,NNW,339,4.0,8.0,91,0.00,,,0.00,Wunderground v.1.15,2013-03-02 22:16:00,
2013-03-02 17:21:00,24.3,21.8,29.67,NW,316,8.0,10.0,90,0.00,,,0.00,Wunderground v.1.15,2013-03-02 22:21:00,
2013-03-02 17:26:00,24.1,21.6,29.66,West,279,1.0,10.0,90,0.00,,,0.00,Wunderground v.1.15,2013-03-02 22:26:00,
2013-03-02 17:31:00,24.0,21.8,29.66,NW,319,3.0,7.0,91,0.00,,,0.00,Wunderground v.1.15,2013-03-02 22:31:00,
2013-03-02 17:36:00,23.9,21.9,29.66,West,280,2.0,7.0,92,0.00,,,0.00,Wunderground v.1.15,2013-03-02 22:36:00,
2013-03-02 17:42:00,23.8,21.8,29.66,SSE,168,1.0,7.0,92,0.00,,,0.00,Wunderground v.1.15,2013-03-02 22:42:00,
2013-03-02 17:47:00,23.8,21.8,29.66,NW,319,3.0,7.0,92,0.00,,,0.00,Wunderground v.1.15,2013-03-02 22:47:00,
2013-03-02 17:52:00,23.7,21.7,29.66,NW,323,2.0,6.0,92,0.00,,,0.00,Wunderground v.1.15,2013-03-02 22:52:00,
2013-03-02 17:57:00,23.6,21.6,29.67,West,281,3.0,6.0,92,0.00,,,0.00,Wunderground v.1.15,2013-03-02 22:57:00,
2013-03-02 18:02:00,23.6,21.9,29.67,WNW,287,0.0,5.0,93,0.00,,,0.00,Wunderground v.1.15,2013-03-02 23:02:00,
2013-03-02 18:07:00,23.5,21.8,29.67,WSW,242,1.0,6.0,93,0.00,,,0.00,Wunderground v.1.15,2013-03-02 23:07:00,
2013-03-02 18:12:00,23.5,21.8,29.67,NW,305,8.0,11.0,93,0.00,,,0.00,Wunderground v.1.15,2013-03-02 23:12:00,
2013-03-02 18:17:00,23.5,21.8,29.67,NW,304,4.0,11.0,93,0.00,,,0.00,Wunderground v.1.15,2013-03-02 23:17:00,
2013-03-02 18:22:00,23.5,21.8,29.67,NW,314,4.0,8.0,93,0.00,,,0.00,Wunderground v.1.15,2013-03-02 23:22:00,
2013-03-02 18:27:00,23.4,21.7,29.67,NW,308,6.0,8.0,93,0.00,,,0.00,Wunderground v.1.15,2013-03-02 23:27:00,
2013-03-02 18:32:00,23.4,21.7,29.67,NW,307,4.0,7.0,93,0.00,,,0.00,Wunderground v.1.15,2013-03-02 23:32:00,
2013-03-02 18:37:00,23.4,21.7,29.67,NW,323,5.0,8.0,93,0.00,,,0.00,Wunderground v.1.15,2013-03-02 23:37:00,
2013-03-02 18:43:00,23.3,21.6,29.67,NW,309,5.0,8.0,93,0.00,,,0.00,Wunderground v.1.15,2013-03-02 23:43:00,
2013-03-02 18:48:00,23.3,21.6,29.68,NW,317,4.0,8.0,93,0.00,,,0.00,Wunderground v.1.15,2013-03-02 23:48:00,
2013-03-02 18:53:00,23.2,21.5,29.68,NW,307,2.0,5.0,93,0.00,,,0.00,Wunderground v.1.15,2013-03-02 23:53:00,
2013-03-02 18:58:00,23.2,21.5,29.68,NW,321,4.0,7.0,93,0.00,,,0.00,Wunderground v.1.15,2013-03-02 23:58:00,
2013-03-02 19:04:00,23.2,21.7,29.67,West,266,2.0,4.0,94,0.00,,,0.00,Wunderground v.1.15,2013-03-03 00:04:00,
2013-03-02 19:09:00,23.2,21.7,29.68,NW,308,4.0,4.0,94,0.00,,,0.00,Wunderground v.1.15,2013-03-03 00:09:00,
2013-03-02 19:14:00,23.1,21.6,29.68,WNW,299,2.0,6.0,94,0.00,,,0.00,Wunderground v.1.15,2013-03-03 00:14:00,
2013-03-02 19:19:00,23.1,21.6,29.68,West,280,1.0,2.0,94,0.00,,,0.00,Wunderground v.1.15,2013-03-03 00:19:00,
2013-03-02 19:24:00,23.0,21.5,29.68,NW,325,3.0,6.0,94,0.00,,,0.00,Wunderground v.1.15,2013-03-03 00:24:00,
2013-03-02 19:29:00,22.9,21.2,29.67,NW,321,5.0,7.0,93,0.00,,,0.00,Wunderground v.1.15,2013-03-03 00:29:00,
2013-03-02 19:34:00,22.8,21.1,29.67,NW,311,2.0,7.0,93,0.00,,,0.00,Wunderground v.1.15,2013-03-03 00:34:00,
2013-03-02 19:39:00,22.8,21.1,29.67,NW,304,4.0,4.0,93,0.00,,,0.00,Wunderground v.1.15,2013-03-03 00:39:00,
2013-03-02 19:44:00,22.7,21.0,29.67,WSW,257,2.0,5.0,93,0.00,,,0.00,Wunderground v.1.15,2013-03-03 00:44:00,
2013-03-02 19:49:00,22.7,21.0,29.67,North,350,2.0,4.0,93,0.00,,,0.00,Wunderground v.1.15,2013-03-03 00:49:00,
2013-03-02 19:54:00,22.6,20.9,29.67,WNW,285,3.0,6.0,93,0.00,,,0.00,Wunderground v.1.15,2013-03-03 00:54:00,
2013-03-02 19:59:00,22.6,20.9,29.67,NW,304,2.0,3.0,93,0.00,,,0.00,Wunderground v.1.15,2013-03-03 00:59:00,
2013-03-02 20:04:00,22.5,20.8,29.67,NW,307,2.0,5.0,93,0.00,,,0.00,Wunderground v.1.15,2013-03-03 01:04:00,
2013-03-02 20:09:00,22.5,20.8,29.67,NW,317,1.0,3.0,93,0.00,,,0.00,Wunderground v.1.15,2013-03-03 01:09:00,
2013-03-02 20:14:00,22.4,20.7,29.68,NW,323,2.0,6.0,93,0.00,,,0.00,Wunderground v.1.15,2013-03-03 01:14:00,
2013-03-02 20:19:00,22.4,20.7,29.67,NW,309,3.0,3.0,93,0.00,,,0.00,Wunderground v.1.15,2013-03-03 01:19:00,
2013-03-02 20:24:00,22.3,20.6,29.68,NW,319,4.0,6.0,93,0.00,,,0.00,Wunderground v.1.15,2013-03-03 01:24:00,
2013-03-02 20:30:00,22.3,20.6,29.68,NW,313,0.0,2.0,93,0.00,,,0.00,Wunderground v.1.15,2013-03-03 01:30:00,
2013-03-02 20:35:00,22.2,20.5,29.68,NW,316,3.0,6.0,93,0.00,,,0.00,Wunderground v.1.15,2013-03-03 01:35:00,
2013-03-02 20:40:00,22.1,20.4,29.68,NW,321,3.0,4.0,93,0.00,,,0.00,Wunderground v.1.15,2013-03-03 01:40:00,
2013-03-02 20:45:00,22.1,20.4,29.68,NNW,335,1.0,4.0,93,0.00,,,0.00,Wunderground v.1.15,2013-03-03 01:45:00,
2013-03-02 20:50:00,22.0,20.3,29.67,WNW,303,2.0,2.0,93,0.00,,,0.00,Wunderground v.1.15,2013-03-03 01:50:00,
2013-03-02 20:55:00,22.0,20.3,29.67,NNW,327,2.0,3.0,93,0.00,,,0.00,Wunderground v.1.15,2013-03-03 01:55:00,
2013-03-02 21:00:00,21.9,20.2,29.68,NW,304,0.0,1.0,93,0.00,,,0.00,Wunderground v.1.15,2013-03-03 02:00:00,
2013-03-02 21:05:00,21.9,20.2,29.68,SW,235,0.0,3.0,93,0.00,,,0.00,Wunderground v.1.15,2013-03-03 02:05:00,
2013-03-02 21:10:00,21.8,20.1,29.67,WNW,300,1.0,2.0,93,0.00,,,0.00,Wunderground v.1.15,2013-03-03 02:10:00,
2013-03-02 21:15:00,21.8,20.1,29.68,WNW,299,1.0,5.0,93,0.00,,,0.00,Wunderground v.1.15,2013-03-03 02:15:00,
2013-03-02 21:20:00,21.7,20.0,29.68,NW,326,1.0,3.0,93,0.00,,,0.00,Wunderground v.1.15,2013-03-03 02:20:00,
2013-03-02 21:25:00,21.6,19.9,29.68,NW,311,3.0,3.0,93,0.00,,,0.00,Wunderground v.1.15,2013-03-03 02:25:00,
2013-03-02 21:30:00,21.5,19.8,29.68,NW,316,0.0,3.0,93,0.00,,,0.00,Wunderground v.1.15,2013-03-03 02:30:00,
2013-03-02 21:35:00,21.4,19.7,29.68,NW,311,3.0,6.0,93,0.00,,,0.00,Wunderground v.1.15,2013-03-03 02:35:00,
2013-03-02 21:40:00,21.3,19.6,29.68,WNW,292,1.0,3.0,93,0.00,,,0.00,Wunderground v.1.15,2013-03-03 02:40:00,
2013-03-02 21:45:00,21.3,19.6,29.68,NW,311,4.0,6.0,93,0.00,,,0.00,Wunderground v.1.15,2013-03-03 02:45:00,
2013-03-02 21:50:00,21.2,19.5,29.68,NW,307,3.0,7.0,93,0.00,,,0.00,Wunderground v.1.15,2013-03-03 02:50:00,
2013-03-02 21:55:00,21.1,19.4,29.68,North,357,4.0,7.0,93,0.00,,,0.00,Wunderground v.1.15,2013-03-03 02:55:00,
2013-03-02 22:00:00,21.1,19.4,29.68,NW,308,3.0,3.0,93,0.00,,,0.00,Wunderground v.1.15,2013-03-03 03:00:00,
2013-03-02 22:05:00,21.0,19.3,29.68,WNW,287,2.0,7.0,93,0.00,,,0.00,Wunderground v.1.15,2013-03-03 03:05:00,
2013-03-02 22:10:00,20.9,19.2,29.68,WNW,283,2.0,5.0,93,0.00,,,0.00,Wunderground v.1.15,2013-03-03 03:10:00,
2013-03-02 22:15:00,20.8,19.1,29.67,NW,319,2.0,8.0,93,0.00,,,0.00,Wunderground v.1.15,2013-03-03 03:15:00,
2013-03-02 22:20:00,20.7,19.2,29.67,NW,305,2.0,4.0,94,0.00,,,0.00,Wunderground v.1.15,2013-03-03 03:20:00,
2013-03-02 22:25:00,20.6,19.1,29.67,West,278,2.0,4.0,94,0.00,,,0.00,Wunderground v.1.15,2013-03-03 03:25:00,
2013-03-02 22:31:00,20.5,19.0,29.67,WNW,302,0.0,3.0,94,0.00,,,0.00,Wunderground v.1.15,2013-03-03 03:31:00,
2013-03-02 22:36:00,20.4,18.9,29.67,West,278,1.0,4.0,94,0.00,,,0.00,Wunderground v.1.15,2013-03-03 03:36:00,
2013-03-02 22:41:00,20.3,18.8,29.67,WNW,302,2.0,4.0,94,0.00,,,0.00,Wunderground v.1.15,2013-03-03 03:41:00,
2013-03-02 22:46:00,20.3,18.8,29.67,West,271,2.0,7.0,94,0.00,,,0.00,Wunderground v.1.15,2013-03-03 03:46:00,
2013-03-02 22:51:00,20.2,18.8,29.67,WSW,242,3.0,4.0,94,0.00,,,0.00,Wunderground v.1.15,2013-03-03 03:51:00,
2013-03-02 22:56:00,20.2,18.8,29.67,NW,313,1.0,9.0,94,0.00,,,0.00,Wunderground v.1.15,2013-03-03 03:56:00,
2013-03-02 23:01:00,20.1,18.7,29.67,WSW,243,4.0,6.0,94,0.00,,,0.00,Wunderground v.1.15,2013-03-03 04:01:00,
2013-03-02 23:06:00,20.0,18.6,29.67,West,262,2.0,6.0,94,0.00,,,0.00,Wunderground v.1.15,2013-03-03 04:06:00,
2013-03-02 23:11:00,20.0,18.6,29.67,NW,311,3.0,3.0,94,0.00,,,0.00,Wunderground v.1.15,2013-03-03 04:11:00,
2013-03-02 23:16:00,19.9,18.5,29.67,WNW,299,3.0,8.0,94,0.00,,,0.00,Wunderground v.1.15,2013-03-03 04:16:00,
2013-03-02 23:21:00,19.8,18.4,29.67,South,188,1.0,3.0,94,0.00,,,0.00,Wunderground v.1.15,2013-03-03 04:21:00,
2013-03-02 23:26:00,19.8,18.4,29.67,SW,214,3.0,5.0,94,0.00,,,0.00,Wunderground v.1.15,2013-03-03 04:26:00,
2013-03-02 23:31:00,19.7,18.3,29.67,NW,307,2.0,6.0,94,0.00,,,0.00,Wunderground v.1.15,2013-03-03 04:31:00,
2013-03-02 23:36:00,19.6,18.2,29.66,NW,316,3.0,6.0,94,0.00,,,0.00,Wunderground v.1.15,2013-03-03 04:36:00,
2013-03-02 23:41:00,19.6,18.2,29.66,WNW,284,1.0,4.0,94,0.00,,,0.00,Wunderground v.1.15,2013-03-03 04:41:00,
2013-03-02 23:46:00,19.5,18.1,29.66,WNW,297,2.0,5.0,94,0.00,,,0.00,Wunderground v.1.15,2013-03-03 04:46:00,
2013-03-02 23:51:00,19.5,18.1,29.66,WSW,240,1.0,4.0,94,0.00,,,0.00,Wunderground v.1.15,2013-03-03 04:51:00,
2013-03-02 23:56:00,19.4,18.0,29.66,WNW,291,3.0,7.0,94,0.00,,,0.00,Wunderground v.1.15,2013-03-03 04:56:00,